• In Uzbekistan
  • List of Countries
  • For 7 days
  • Water Temperature
  • Weather Map
  • Weather Widgets
  • user-avatar
    Login

    Hourly Weather Enilchek

    Today, 14 October, Monday

    Time Temperature Precipitation Wind Pressure Humidity
    00:00 -4°C° 0 mm 1 mps 513 mmHg 35%
    01:00 -6°C° 0 mm 1 mps 513 mmHg 34%
    02:00 -6°C° 0 mm 1 mps 513 mmHg 34%
    03:00 -6°C° 0 mm 1 mps 513 mmHg 33%
    04:00 -6°C° 0 mm 1 mps 513 mmHg 32%
    05:00 -6°C° 0 mm 1 mps 513 mmHg 31%
    06:00 -4°C° 0 mm 1 mps 513 mmHg 32%
    07:00 -3°C° 0 mm 1 mps 514 mmHg 32%
    08:00 -2°C° 0 mm 1 mps 515 mmHg 33%
    09:00 -1°C° 0 mm 1 mps 515 mmHg 35%
    10:00 0°C° 0 mm 1 mps 515 mmHg 38%
    11:00 +1°C° 0 mm 1 mps 516 mmHg 40%
    12:00 +1°C° 0 mm 1 mps 516 mmHg 43%
    13:00 +2°C° 0 mm 1 mps 515 mmHg 45%
    14:00 +2°C° 0 mm 1 mps 515 mmHg 48%
    15:00 0°C° 0 mm 1 mps 514 mmHg 49%
    16:00 -1°C° 0 mm 1 mps 513 mmHg 51%
    17:00 -3°C° 0 mm 1 mps 512 mmHg 52%
    18:00 -3°C° 0 mm 1 mps 512 mmHg 55%
    19:00 -3°C° 0 mm 1 mps 512 mmHg 58%
    20:00 -4°C° 0 mm 1 mps 512 mmHg 61%
    21:00 -4°C° 0 mm 1 mps 511 mmHg 66%
    22:00 -4°C° 0 mm 1 mps 511 mmHg 70%
    23:00 -6°C° 0 mm 1 mps 511 mmHg 75%

    Tomorrow, 15 October, Tuesday

    Time Temperature Precipitation Wind Pressure Humidity
    00:00 -6°C° 0 mm 1 mps 511 mmHg 77%
    01:00 -7°C° 0 mm 2 mps 511 mmHg 80%
    02:00 -7°C° 0 mm 2 mps 511 mmHg 82%
    03:00 -7°C° 0 mm 2 mps 512 mmHg 80%
    04:00 -6°C° 0 mm 2 mps 512 mmHg 78%
    05:00 -6°C° 0 mm 2 mps 512 mmHg 76%
    06:00 -6°C° 0 mm 2 mps 513 mmHg 73%
    07:00 -3°C° 0 mm 1 mps 513 mmHg 70%
    08:00 -3°C° 0 mm 1 mps 514 mmHg 68%
    09:00 -1°C° 0 mm 1 mps 514 mmHg 64%
    10:00 0°C° 0 mm 1 mps 515 mmHg 60%
    11:00 +1°C° 0 mm 1 mps 515 mmHg 57%
    12:00 +2°C° 0 mm 1 mps 516 mmHg 58%
    13:00 +2°C° 0 mm 1 mps 516 mmHg 59%
    14:00 +2°C° 0 mm 2 mps 516 mmHg 59%
    15:00 -1°C° 0 mm 2 mps 515 mmHg 62%
    16:00 -2°C° 0 mm 2 mps 515 mmHg 64%
    17:00 -3°C° 0 mm 2 mps 514 mmHg 67%
    18:00 -4°C° 0 mm 2 mps 514 mmHg 66%
    19:00 -4°C° 0 mm 2 mps 514 mmHg 66%
    20:00 -5°C° 0 mm 2 mps 514 mmHg 66%
    21:00 -5°C° 0 mm 2 mps 514 mmHg 65%
    22:00 -5°C° 0 mm 2 mps 514 mmHg 64%
    23:00 -5°C° 0 mm 2 mps 513 mmHg 63%

    Day after tomorrow, 16 October, Wednesday

    Time Temperature Precipitation Wind Pressure Humidity
    00:00 -5°C° 0 mm 2 mps 513 mmHg 61%
    01:00 -5°C° 0 mm 2 mps 513 mmHg 60%
    02:00 -5°C° 0 mm 2 mps 513 mmHg 58%
    03:00 -5°C° 0 mm 2 mps 513 mmHg 56%
    04:00 -5°C° 0 mm 2 mps 513 mmHg 53%
    05:00 -5°C° 0 mm 2 mps 513 mmHg 51%
    06:00 -2°C° 0 mm 1 mps 513 mmHg 49%
    07:00 -1°C° 0 mm 1 mps 514 mmHg 47%
    08:00 0°C° 0 mm 1 mps 514 mmHg 45%
    09:00 +1°C° 0 mm 1 mps 515 mmHg 46%
    10:00 +2°C° 0 mm 1 mps 515 mmHg 46%
    11:00 +4°C° 0 mm 1 mps 516 mmHg 47%
    12:00 +4°C° 0 mm 1 mps 515 mmHg 48%
    13:00 +4°C° 0 mm 1 mps 515 mmHg 49%
    14:00 +4°C° 0 mm 1 mps 515 mmHg 50%
    15:00 +3°C° 0 mm 1 mps 514 mmHg 49%
    16:00 +2°C° 0 mm 1 mps 513 mmHg 48%
    17:00 0°C° 0 mm 1 mps 512 mmHg 47%
    18:00 0°C° 0 mm 1 mps 512 mmHg 46%
    19:00 0°C° 0 mm 1 mps 512 mmHg 44%
    20:00 -1°C° 0 mm 1 mps 512 mmHg 43%
    21:00 -1°C° 0 mm 1 mps 512 mmHg 42%
    22:00 -1°C° 0 mm 1 mps 512 mmHg 42%
    23:00 -1°C° 0 mm 1 mps 512 mmHg 42%

    17 October, Thursday

    Time Temperature Precipitation Wind Pressure Humidity
    00:00 -1°C° 0 mm 1 mps 511 mmHg 41%
    01:00 -1°C° 0 mm 1 mps 511 mmHg 41%
    02:00 -1°C° 0 mm 1 mps 511 mmHg 41%
    03:00 -1°C° 0 mm 1 mps 511 mmHg 40%
    04:00 -1°C° 0 mm 1 mps 510 mmHg 40%
    05:00 -2°C° 0 mm 1 mps 510 mmHg 39%
    06:00 -1°C° 0 mm 1 mps 511 mmHg 39%
    07:00 0°C° 0 mm 1 mps 512 mmHg 38%
    08:00 +1°C° 0 mm 1 mps 512 mmHg 37%
    09:00 +2°C° 0 mm 1 mps 513 mmHg 40%
    10:00 +3°C° 0 mm 1 mps 514 mmHg 42%
    11:00 +4°C° 0 mm 1 mps 514 mmHg 44%
    12:00 +4°C° 0 mm 1 mps 514 mmHg 46%
    13:00 +4°C° 0 mm 2 mps 514 mmHg 47%
    14:00 +4°C° 0 mm 2 mps 514 mmHg 49%
    15:00 +2°C° 0 mm 2 mps 513 mmHg 53%
    16:00 -1°C° 0 mm 2 mps 512 mmHg 57%
    17:00 -2°C° 0 mm 2 mps 511 mmHg 61%
    18:00 -3°C° 0 mm 2 mps 511 mmHg 62%
    19:00 -3°C° 0 mm 2 mps 510 mmHg 62%
    20:00 -3°C° 0 mm 2 mps 510 mmHg 63%
    21:00 -4°C° 0 mm 2 mps 510 mmHg 63%
    22:00 -4°C° 0 mm 2 mps 510 mmHg 64%
    23:00 -4°C° 0 mm 2 mps 510 mmHg 64%

    18 October, Friday

    Time Temperature Precipitation Wind Pressure Humidity
    00:00 -4°C° 0 mm 2 mps 510 mmHg 64%
    01:00 -5°C° 0 mm 2 mps 510 mmHg 64%
    02:00 -5°C° 0 mm 2 mps 510 mmHg 64%
    03:00 -5°C° 0 mm 2 mps 510 mmHg 64%
    04:00 -5°C° 0 mm 2 mps 510 mmHg 65%
    05:00 -6°C° 0 mm 2 mps 510 mmHg 66%
    06:00 -5°C° 0 mm 2 mps 510 mmHg 65%
    07:00 -5°C° 0 mm 2 mps 511 mmHg 63%
    08:00 -4°C° 0 mm 2 mps 511 mmHg 62%
    09:00 -3°C° 0 mm 2 mps 512 mmHg 58%
    10:00 -2°C° 0 mm 2 mps 513 mmHg 55%
    11:00 +1°C° 0 mm 1 mps 514 mmHg 51%
    12:00 +2°C° 0 mm 1 mps 514 mmHg 50%
    13:00 +1°C° 0 mm 2 mps 514 mmHg 48%
    14:00 +1°C° 0 mm 2 mps 514 mmHg 47%
    15:00 -1°C° 0 mm 2 mps 513 mmHg 50%
    16:00 -2°C° 0 mm 2 mps 512 mmHg 52%
    17:00 -4°C° 0 mm 2 mps 512 mmHg 55%
    18:00 -4°C° 0 mm 2 mps 511 mmHg 55%
    19:00 -5°C° 0 mm 2 mps 511 mmHg 55%
    20:00 -5°C° 0 mm 2 mps 511 mmHg 56%
    21:00 -5°C° 0 mm 2 mps 511 mmHg 53%
    22:00 -5°C° 0 mm 2 mps 511 mmHg 50%
    23:00 -3°C° 0 mm 1 mps 511 mmHg 47%

    19 October, Saturday

    Time Temperature Precipitation Wind Pressure Humidity
    00:00 -4°C° 0 mm 1 mps 511 mmHg 45%
    01:00 -4°C° 0 mm 1 mps 511 mmHg 44%
    02:00 -4°C° 0 mm 1 mps 510 mmHg 42%
    03:00 -4°C° 0 mm 1 mps 510 mmHg 41%
    04:00 -4°C° 0 mm 1 mps 510 mmHg 39%
    05:00 -4°C° 0 mm 1 mps 510 mmHg 38%
    06:00 -3°C° 0 mm 1 mps 511 mmHg 37%
    07:00 -3°C° 0 mm 1 mps 511 mmHg 36%
    08:00 -2°C° 0 mm 1 mps 512 mmHg 36%
    09:00 -3°C° 0 mm 2 mps 512 mmHg 39%
    10:00 -2°C° 0 mm 2 mps 513 mmHg 41%
    11:00 -1°C° 0 mm 2 mps 513 mmHg 44%
    12:00 +1°C° 0 mm 2 mps 513 mmHg 46%
    13:00 +1°C° 0 mm 2 mps 513 mmHg 48%
    14:00 +1°C° 0 mm 2 mps 513 mmHg 50%
    15:00 -1°C° 0 mm 2 mps 512 mmHg 53%
    16:00 -3°C° 0 mm 2 mps 511 mmHg 56%
    17:00 -4°C° 0 mm 2 mps 510 mmHg 59%
    18:00 -4°C° 0 mm 2 mps 510 mmHg 58%
    19:00 -4°C° 0 mm 2 mps 511 mmHg 56%
    20:00 -4°C° 0 mm 2 mps 511 mmHg 55%
    21:00 -4°C° 0 mm 2 mps 511 mmHg 53%
    22:00 -2°C° 0 mm 1 mps 511 mmHg 51%
    23:00 -2°C° 0 mm 1 mps 511 mmHg 50%
    Show more